SCP
0 0 0 0 0 0 0 0 0 0 0 0 0 0 0 0 0 0 0 0 0 0 0 0 0 0 0 0 0 0 0 0 0 0 0 0 0 0 0 0 0 0 0 0
0 0 0 0 0 0 0 0 0 0 0 0 0 0 0 0 0 0 0 0 0 0 0 0 0 0 0 0 0 0 0 0 0 0 0 0 0 0 0 0 0 0 0 0
0 0 0 0 0 0 0 0 0 0 0 0 0 0 0 0 0 0 0 0 0 0 0 0 0 0 0 0 0 0 0 0 0 0 0 0 0 0 0 0 0 0 0 0
0 0 0 0 0 0 0 0 0 0 0 0 0 -0 0 0 0 0 0 0 0 0 0 0 0 0 0 0 0 0 0 0 0 0 0 0 0 0 0 0 0 0 0 0
0 0 0 0 0 0 0 0 0 0 0 0 0 0 0 0 0 0 0 0 0 0 0 0 0 0 0 0 0 0 0 0 0 0 0 0 0 0 0 0 0 0 0 0
0 0 0 0 0 0 0 0 0 0 0 0 0 0 0 0 0 0 0 0 0 0 0 0 0 0 0 0 0 0 0 0 0 0 0 0 0 0 0 0 0 0 0 0
0 0 0 0 0 0 0 0 0 0 0 0 0 0 0 0 0 0 0 0 0 0 0 0 0 0 0 0 0 0 0 0 0 0 0 0 0 0 0 0 0 0 0 0
0 0 0 0 0 0 0 0 0 0 0 0 0 0 0 0 0 0 0 0 0 0 0 0 0 0 0 0 0 0 0 0 0 0 0 0 0 0 0 0 0 0 0 0
0 0 0 0 0 0 0 0 0 0 0 0 0 0 0 0 0 0 0 0 0 0 0 0 0 0 0 0 0 0 0 0 0 0 0 0 0 0 0 0 0 0 0 0
0 0 0 0 0 0 0 0 0 0 0 0 0 0 0 0 0 0 0 0 0 0 0 0 0 0 0 0 0 0 0 0 0 0 0 0 0 0 0 0 0 0 0 0
0 0 0 0 0 0 0 0 0 0 0 0 0 0 0 0 0 0 0 -0 0 0 0 0 0 0 0 0 0 0 0 0 0 0 0 0 0 0 0 0 0 0 0 0
0 0 0 0 0 0 0 0 0 0 0 0 0 0 0 0 0 0 0 0 0 0 0 0 0 0 0 0 0 0 0 0 0 0 0 0 0 0 0 0 0 0 0 0
0 0 0 0 0 0 0 0 0 0 0 0 0 0 0 0 0 0 0 0 0 0 0 0 0 0 0 0 0 0 0 0 0 0 0 0 0 0 0 0 0 0 0 0
0 0 0 0 0 0 0 0 0 0 0 0 0 0 0 0 0 0 0 0 0 0 0 0 0 0 0 0 0 0 0 0 0 0 0 0 0 0 0 0 0 0 0 0
0 0 0 0 0 0 0 0 0 0 0 0 0 0 0 0 0 0 0 0 0 0 0 0 0 0 0 0 0 0 0 0 0 0 0 0 0 0 0 0 0 0 0 0
0 0 0 0 0 0 0 0 0 0 0 0 0 0 0 0 0 0 0 0 0 0 0 0 0 0 0 0 0 0 0 0 0 0 0 0 0 0 0 0 0 0 0 0
0 0 0 0 0 0 0 0 0 0 0 0 0 0 0 0 0 0 0 0 0 0 0 0 0 0 0 0 0 0 0 0 0 0 0 0 0 0 0 0 0 0 0 0
0 0 0 0 0 0 0 0 0 0 0 0 0 0 0 0 0 0 0 0 0 0 0 0 0 0 0 0 0 0 0 0 0 0 0 0 0 0 0 0 0 0 0 0
0 0 0 0 0 0 0 0 0 0 0 0 0 0 0 0 0 0 0 0 0 0 0 -0 0 0 0 0 0 0 0 0 0 0 0 0 0 0 0 0 0 0 0 0
0 0 0 0 0 0 0 0 0 0 0 0 0 0 0 0 0 0 0 0 0 0 0 0 0 0 0 0 0 0 0 0 0 0 0 0 0 0 0 0 0 0 0 0
0 0 0 0 0 0 0 0 0 0 0 0 0 0 0 0 0 0 0 0 0 0 0 0 0 0 0 0 0 0 0 0 0 0 0 0 0 0 0 0 0 0 0 0
0 0 0 0 0 0 0 0 0 0 0 0 0 -0 0 0 -0 0 0 0 0 0 0 0 0 0 0 0 0 0 0 0 0 0 0 0 0 0 0 0 0 0 0 0
0 0 0 0 0 0 -0 0 -0 -0 -0 -0 -0 -0 -0 -0 -0 0 -0 -0 0 0 0 0 0 0 0 0 0 0 0 0 0 0 0 0 0 0 0 0 0 0 0 0
0 -0 -0 -0 -0 -0 -0 -0 -0 -0 -0 -0 -0 -0 -0 -0 -0 -0 -0 -0 -0 -0 -0 -0 0 0 0 0 0 0 0 0 0 0 0 0 0 0 0 0 0 0 0 0
0 0 0 0 -0 -0 -0 -0 -0 -0 -0 -0 -0 -0 -0 -0 -0 -0 -0 -0 -0 -0 -0 -0 -0 -0 0 0 0 0 0 0 0 0 0 0 0 0 0 0 0 0 0 0
0 0 0 0 0 0 -0 -0 -0 -0 -0 -0 -0 -0 -0 -0 -0 -0 -0 -0 -0 -0 -0 -0 -0 0 0 0 0 0 0 0 0 0 0 0 0 0 0 0 0 0 0 0
Wind_Speed_500mb
19 9 20 46 32 13 9 11 17 38 20 19 34 36 41 56 46 50 76 85 93 101 102 83 70 69 82 85 83 85 84 81 78 78 79 80 78 72 68 64 62 57 54 49
4 23 38 9 21 22 25 31 32 33 24 20 28 42 35 21 34 55 61 79 97 90 82 71 55 60 79 89 87 85 84 81 80 79 80 81 77 74 66 64 63 59 56 54
37 21 37 25 17 17 39 30 38 37 20 13 16 22 25 23 34 60 76 90 94 91 82 68 56 60 74 89 90 86 82 79 81 78 78 80 73 70 72 76 71 66 63 61
23 26 22 11 14 24 45 19 30 19 6 25 8 29 16 14 24 20 52 75 84 89 78 58 54 61 77 86 84 79 76 76 79 80 81 85 88 91 91 82 73 68 67 65
21 6 15 27 47 19 36 7 8 3 8 10 12 12 7 16 15 22 32 74 84 80 66 47 53 58 72 80 78 75 72 75 78 79 83 88 91 89 82 76 70 70 68 67
21 3 8 14 3 11 3 1 3 4 5 24 16 18 11 13 18 13 21 59 69 59 53 40 51 58 70 71 71 73 76 78 79 81 84 87 91 88 82 80 77 76 72 70
6 24 7 11 7 3 5 9 8 8 2 25 24 22 45 10 14 22 25 51 61 63 43 33 55 59 63 71 74 77 80 84 84 82 82 84 88 88 87 84 84 81 78 77
7 28 23 17 29 23 16 19 12 14 19 38 8 16 13 21 28 51 62 68 64 55 33 50 50 49 57 68 75 78 83 87 88 87 85 83 85 87 89 89 90 86 82 75
13 26 3 7 3 17 11 12 17 3 4 5 19 24 14 14 20 22 39 20 45 48 43 51 47 43 50 64 75 76 77 86 93 93 90 90 88 88 91 91 90 88 81 73
13 17 16 7 3 5 10 4 3 2 6 14 34 12 28 31 43 38 14 21 29 34 36 37 38 39 44 56 67 74 79 87 93 97 96 96 91 88 90 91 89 89 84 80
11 15 33 10 14 19 2 7 10 4 9 26 30 29 12 4 12 15 13 18 23 20 22 22 29 38 46 56 68 73 81 86 90 95 101 102 101 99 96 91 91 90 87 83
4 8 8 23 13 12 10 13 17 18 19 8 15 31 41 15 10 13 10 3 2 10 37 51 48 48 58 65 66 71 81 86 83 93 103 107 107 103 99 94 93 90 87 83
7 5 8 15 26 6 12 13 15 13 5 23 27 27 54 47 52 62 23 48 54 90 94 67 49 62 72 70 73 80 85 85 83 91 99 105 108 106 104 97 92 88 86 85
26 18 24 33 33 17 16 14 17 29 23 44 41 63 54 64 62 54 61 88 78 79 84 71 63 66 74 76 79 87 87 86 88 92 98 103 105 103 105 102 91 86 86 86
24 21 36 51 54 60 57 51 51 42 43 37 55 51 47 61 58 52 77 78 68 60 52 50 65 71 74 80 82 88 92 95 95 97 97 100 99 99 102 100 89 83 84 86
23 34 35 43 54 62 61 64 65 68 66 52 64 63 65 64 90 75 100 92 64 67 78 82 77 72 81 89 92 97 100 98 96 99 98 98 98 99 102 96 91 86 86 88
21 13 22 51 39 46 47 65 74 59 49 48 56 70 72 69 62 65 87 92 67 77 83 83 85 79 74 76 81 87 86 89 103 99 97 96 94 98 98 93 91 88 91 89
49 43 22 26 32 46 22 33 56 67 66 64 71 68 62 56 74 79 85 74 87 99 89 86 76 84 89 81 69 68 78 83 91 91 93 93 93 94 93 91 90 89 89 92
39 35 20 30 34 39 19 14 38 39 61 51 53 54 46 58 69 59 53 53 47 60 74 83 94 96 79 67 60 61 67 73 78 81 88 92 90 91 93 92 91 90 92 96
25 38 38 44 52 65 50 16 28 41 41 41 31 40 33 35 9 9 68 80 80 67 70 73 60 59 61 49 42 53 61 66 72 72 80 84 88 91 92 91 93 92 89 95
26 27 38 42 33 17 20 41 35 18 16 52 36 40 48 30 24 55 79 89 87 86 87 80 74 60 48 47 42 45 53 60 69 72 74 80 83 86 86 89 92 91 93 100
13 11 10 14 30 50 43 22 20 29 49 41 52 53 51 42 53 59 68 77 81 84 86 80 77 69 60 56 44 40 47 55 66 66 69 75 80 84 87 86 93 91 99 101
13 5 8 10 16 44 29 46 33 24 20 35 48 59 49 61 64 60 61 63 76 77 72 67 68 69 73 70 62 58 53 49 54 60 63 69 76 80 83 86 93 94 104 101
11 24 12 24 18 39 63 54 44 59 58 57 52 70 60 57 58 75 74 71 74 86 78 76 70 73 82 68 70 71 69 61 53 54 62 67 72 76 79 84 91 96 108 100
17 24 12 25 32 36 39 41 49 54 46 59 70 58 60 60 66 66 73 77 71 76 73 71 84 77 89 77 62 68 76 80 74 72 72 72 76 79 82 88 97 106 106 93
29 30 22 31 46 24 48 56 45 28 43 48 51 74 79 72 75 71 68 76 74 72 71 71 75 80 75 78 62 59 70 81 88 77 75 82 86 89 92 96 102 104 102 90
Wind_Direction_500mb
196 147 205 228 201 227 250 252 236 268 260 205 241 238 255 257 260 255 261 267 269 272 281 279 269 264 246 237 234 231 230 227 226 224 221 222 224 226 228 229 230 230 229 229
244 218 221 213 205 225 247 257 263 274 270 196 249 254 253 242 246 250 248 259 266 268 273 274 264 253 238 232 230 229 230 229 227 228 226 227 228 229 232 233 233 232 232 232
222 219 218 225 235 261 250 248 259 256 294 232 281 266 248 245 250 252 255 259 265 267 268 270 253 246 231 225 226 228 230 230 229 229 226 226 224 227 227 229 231 231 232 233
247 235 220 193 210 195 262 218 258 267 257 271 134 290 218 231 239 237 247 257 261 269 268 263 245 232 225 226 226 231 231 229 227 228 225 226 226 226 230 234 236 235 234 234
234 218 202 225 234 194 261 182 237 248 239 318 176 285 201 197 242 247 245 252 265 270 269 248 234 231 224 223 226 231 230 226 227 228 229 228 230 232 236 237 235 233 234 234
247 166 214 212 171 193 110 203 199 40 84 264 189 209 184 195 213 235 246 254 259 259 261 251 232 224 223 223 227 227 224 223 224 226 230 231 233 233 232 233 232 233 234 234
290 226 170 156 176 286 170 78 301 315 24 260 184 222 252 275 216 214 231 241 237 248 258 243 209 216 222 224 222 221 222 223 224 226 230 233 235 234 234 236 237 235 233 232
253 284 158 187 200 189 184 176 173 225 259 277 157 251 256 224 232 244 240 247 249 245 237 227 220 224 225 224 220 220 222 224 224 226 228 232 236 236 235 237 238 238 239 239
208 263 309 192 176 151 169 181 219 334 64 0 257 274 294 256 281 271 247 252 252 246 216 218 223 231 229 228 226 225 226 227 226 227 229 232 235 236 235 236 239 238 238 235
234 263 195 146 140 328 170 146 110 278 208 242 273 274 271 286 278 272 240 211 212 203 208 219 230 238 237 240 236 234 235 236 233 231 231 232 234 236 239 238 238 237 236 233
295 244 258 123 194 183 150 247 234 215 181 243 258 271 152 97 316 291 260 223 200 221 236 256 262 256 247 243 237 237 237 239 238 238 237 236 236 235 237 239 238 237 234 233
310 294 292 253 289 201 168 213 215 238 259 237 272 265 276 294 334 288 110 239 216 275 306 299 294 281 265 251 246 246 244 242 245 243 241 239 238 238 238 238 237 235 233 232
166 202 272 289 284 231 211 197 211 242 227 244 264 266 275 277 281 274 247 275 275 287 286 283 271 261 258 250 249 250 246 246 246 245 244 241 241 239 239 239 237 234 231 231
190 198 202 232 238 271 264 257 255 249 254 259 247 256 263 270 262 269 273 268 270 272 273 272 261 261 263 262 263 257 249 248 249 246 243 241 241 241 240 240 235 232 231 230
176 231 220 231 236 252 261 254 252 250 249 246 257 257 253 258 274 273 277 273 272 275 263 257 271 273 272 269 266 260 255 250 248 245 242 241 241 241 240 238 235 232 230 229
207 247 227 234 227 226 237 246 249 252 248 250 254 258 256 261 266 271 270 271 285 281 273 267 268 273 272 269 266 265 259 256 251 244 244 241 239 238 238 236 232 229 228 226
247 248 226 249 227 232 239 236 240 247 250 241 247 246 250 258 260 259 273 282 282 275 269 271 274 272 270 273 273 267 262 257 248 243 241 239 239 236 235 233 229 226 225 223
268 262 269 265 264 241 222 208 226 241 245 250 253 258 260 258 269 272 275 278 285 282 284 279 279 282 290 295 286 267 258 252 244 240 240 238 235 234 233 230 227 225 224 222
229 247 267 262 254 271 265 227 227 234 251 267 290 278 280 292 284 274 313 334 324 322 309 301 296 294 293 291 284 263 251 246 240 238 239 238 234 233 231 228 226 224 222 218
258 242 250 259 261 266 276 347 328 262 257 2 2 359 1 347 332 10 346 341 339 348 352 349 329 307 300 296 292 271 251 239 238 240 239 236 234 233 232 229 225 222 219 218
271 269 257 253 255 256 10 10 320 241 337 316 6 6 357 344 334 318 323 323 322 328 331 334 332 337 329 319 303 281 259 255 247 238 238 235 234 233 231 227 224 220 214 212
280 325 296 310 264 266 24 17 14 299 304 341 335 332 325 308 304 306 308 309 311 320 323 326 321 324 322 331 320 295 272 263 252 244 240 237 235 231 228 226 223 218 212 209
295 12 303 320 318 314 301 316 314 302 309 319 319 323 331 318 310 309 318 320 315 314 319 319 319 312 310 317 315 310 298 279 262 252 245 241 237 232 229 225 221 214 210 207
279 283 290 320 286 299 304 316 335 339 335 327 324 321 317 308 311 308 304 302 300 301 311 309 308 305 300 297 302 297 290 280 274 265 255 246 238 235 231 225 222 215 210 205
258 295 264 273 280 286 291 307 324 324 314 318 318 320 313 311 305 303 303 301 302 301 299 299 296 295 296 295 288 286 282 271 257 253 252 250 240 236 229 225 221 211 212 210
257 262 269 276 292 300 300 314 326 312 321 321 316 313 315 314 310 312 304 303 303 299 299 297 291 290 290 294 288 281 276 271 261 251 247 241 235 226 223 219 212 209 207 206
Wind_Speed_850mb
19 9 20 46 32 13 9 11 17 38 20 19 34 36 41 56 46 50 76 85 93 101 102 83 70 69 82 85 83 85 84 81 78 78 79 80 78 72 68 64 62 57 54 49
4 23 38 9 21 22 25 31 32 33 24 20 28 42 35 21 34 55 61 79 97 90 82 71 55 60 79 89 87 85 84 81 80 79 80 81 77 74 66 64 63 59 56 54
37 21 37 25 17 17 39 30 38 37 20 13 16 22 25 23 34 60 76 90 94 91 82 68 56 60 74 89 90 86 82 79 81 78 78 80 73 70 72 76 71 66 63 61
23 26 22 11 14 24 45 19 30 19 6 25 8 29 16 14 24 20 52 75 84 89 78 58 54 61 77 86 84 79 76 76 79 80 81 85 88 91 91 82 73 68 67 65
21 6 15 27 47 19 36 7 8 3 8 10 12 12 7 16 15 22 32 74 84 80 66 47 53 58 72 80 78 75 72 75 78 79 83 88 91 89 82 76 70 70 68 67
21 3 8 14 3 11 3 1 3 4 5 24 16 18 11 13 18 13 21 59 69 59 53 40 51 58 70 71 71 73 76 78 79 81 84 87 91 88 82 80 77 76 72 70
6 24 7 11 7 3 5 9 8 8 2 25 24 22 45 10 14 22 25 51 61 63 43 33 55 59 63 71 74 77 80 84 84 82 82 84 88 88 87 84 84 81 78 77
7 28 23 17 29 23 16 19 12 14 19 38 8 16 13 21 28 51 62 68 64 55 33 50 50 49 57 68 75 78 83 87 88 87 85 83 85 87 89 89 90 86 82 75
13 26 3 7 3 17 11 12 17 3 4 5 19 24 14 14 20 22 39 20 45 48 43 51 47 43 50 64 75 76 77 86 93 93 90 90 88 88 91 91 90 88 81 73
13 17 16 7 3 5 10 4 3 2 6 14 34 12 28 31 43 38 14 21 29 34 36 37 38 39 44 56 67 74 79 87 93 97 96 96 91 88 90 91 89 89 84 80
11 15 33 10 14 19 2 7 10 4 9 26 30 29 12 4 12 15 13 18 23 20 22 22 29 38 46 56 68 73 81 86 90 95 101 102 101 99 96 91 91 90 87 83
4 8 8 23 13 12 10 13 17 18 19 8 15 31 41 15 10 13 10 3 2 10 37 51 48 48 58 65 66 71 81 86 83 93 103 107 107 103 99 94 93 90 87 83
7 5 8 15 26 6 12 13 15 13 5 23 27 27 54 47 52 62 23 48 54 90 94 67 49 62 72 70 73 80 85 85 83 91 99 105 108 106 104 97 92 88 86 85
26 18 24 33 33 17 16 14 17 29 23 44 41 63 54 64 62 54 61 88 78 79 84 71 63 66 74 76 79 87 87 86 88 92 98 103 105 103 105 102 91 86 86 86
24 21 36 51 54 60 57 51 51 42 43 37 55 51 47 61 58 52 77 78 68 60 52 50 65 71 74 80 82 88 92 95 95 97 97 100 99 99 102 100 89 83 84 86
23 34 35 43 54 62 61 64 65 68 66 52 64 63 65 64 90 75 100 92 64 67 78 82 77 72 81 89 92 97 100 98 96 99 98 98 98 99 102 96 91 86 86 88
21 13 22 51 39 46 47 65 74 59 49 48 56 70 72 69 62 65 87 92 67 77 83 83 85 79 74 76 81 87 86 89 103 99 97 96 94 98 98 93 91 88 91 89
49 43 22 26 32 46 22 33 56 67 66 64 71 68 62 56 74 79 85 74 87 99 89 86 76 84 89 81 69 68 78 83 91 91 93 93 93 94 93 91 90 89 89 92
39 35 20 30 34 39 19 14 38 39 61 51 53 54 46 58 69 59 53 53 47 60 74 83 94 96 79 67 60 61 67 73 78 81 88 92 90 91 93 92 91 90 92 96
25 38 38 44 52 65 50 16 28 41 41 41 31 40 33 35 9 9 68 80 80 67 70 73 60 59 61 49 42 53 61 66 72 72 80 84 88 91 92 91 93 92 89 95
26 27 38 42 33 17 20 41 35 18 16 52 36 40 48 30 24 55 79 89 87 86 87 80 74 60 48 47 42 45 53 60 69 72 74 80 83 86 86 89 92 91 93 100
13 11 10 14 30 50 43 22 20 29 49 41 52 53 51 42 53 59 68 77 81 84 86 80 77 69 60 56 44 40 47 55 66 66 69 75 80 84 87 86 93 91 99 101
13 5 8 10 16 44 29 46 33 24 20 35 48 59 49 61 64 60 61 63 76 77 72 67 68 69 73 70 62 58 53 49 54 60 63 69 76 80 83 86 93 94 104 101
11 24 12 24 18 39 63 54 44 59 58 57 52 70 60 57 58 75 74 71 74 86 78 76 70 73 82 68 70 71 69 61 53 54 62 67 72 76 79 84 91 96 108 100
17 24 12 25 32 36 39 41 49 54 46 59 70 58 60 60 66 66 73 77 71 76 73 71 84 77 89 77 62 68 76 80 74 72 72 72 76 79 82 88 97 106 106 93
29 30 22 31 46 24 48 56 45 28 43 48 51 74 79 72 75 71 68 76 74 72 71 71 75 80 75 78 62 59 70 81 88 77 75 82 86 89 92 96 102 104 102 90
Wind_Direction_850mb
196 147 205 228 201 227 250 252 236 268 260 205 241 238 255 257 260 255 261 267 269 272 281 279 269 264 246 237 234 231 230 227 226 224 221 222 224 226 228 229 230 230 229 229
244 218 221 213 205 225 247 257 263 274 270 196 249 254 253 242 246 250 248 259 266 268 273 274 264 253 238 232 230 229 230 229 227 228 226 227 228 229 232 233 233 232 232 232
222 219 218 225 235 261 250 248 259 256 294 232 281 266 248 245 250 252 255 259 265 267 268 270 253 246 231 225 226 228 230 230 229 229 226 226 224 227 227 229 231 231 232 233
247 235 220 193 210 195 262 218 258 267 257 271 134 290 218 231 239 237 247 257 261 269 268 263 245 232 225 226 226 231 231 229 227 228 225 226 226 226 230 234 236 235 234 234
234 218 202 225 234 194 261 182 237 248 239 318 176 285 201 197 242 247 245 252 265 270 269 248 234 231 224 223 226 231 230 226 227 228 229 228 230 232 236 237 235 233 234 234
247 166 214 212 171 193 110 203 199 40 84 264 189 209 184 195 213 235 246 254 259 259 261 251 232 224 223 223 227 227 224 223 224 226 230 231 233 233 232 233 232 233 234 234
290 226 170 156 176 286 170 78 301 315 24 260 184 222 252 275 216 214 231 241 237 248 258 243 209 216 222 224 222 221 222 223 224 226 230 233 235 234 234 236 237 235 233 232
253 284 158 187 200 189 184 176 173 225 259 277 157 251 256 224 232 244 240 247 249 245 237 227 220 224 225 224 220 220 222 224 224 226 228 232 236 236 235 237 238 238 239 239
208 263 309 192 176 151 169 181 219 334 64 0 257 274 294 256 281 271 247 252 252 246 216 218 223 231 229 228 226 225 226 227 226 227 229 232 235 236 235 236 239 238 238 235
234 263 195 146 140 328 170 146 110 278 208 242 273 274 271 286 278 272 240 211 212 203 208 219 230 238 237 240 236 234 235 236 233 231 231 232 234 236 239 238 238 237 236 233
295 244 258 123 194 183 150 247 234 215 181 243 258 271 152 97 316 291 260 223 200 221 236 256 262 256 247 243 237 237 237 239 238 238 237 236 236 235 237 239 238 237 234 233
310 294 292 253 289 201 168 213 215 238 259 237 272 265 276 294 334 288 110 239 216 275 306 299 294 281 265 251 246 246 244 242 245 243 241 239 238 238 238 238 237 235 233 232
166 202 272 289 284 231 211 197 211 242 227 244 264 266 275 277 281 274 247 275 275 287 286 283 271 261 258 250 249 250 246 246 246 245 244 241 241 239 239 239 237 234 231 231
190 198 202 232 238 271 264 257 255 249 254 259 247 256 263 270 262 269 273 268 270 272 273 272 261 261 263 262 263 257 249 248 249 246 243 241 241 241 240 240 235 232 231 230
176 231 220 231 236 252 261 254 252 250 249 246 257 257 253 258 274 273 277 273 272 275 263 257 271 273 272 269 266 260 255 250 248 245 242 241 241 241 240 238 235 232 230 229
207 247 227 234 227 226 237 246 249 252 248 250 254 258 256 261 266 271 270 271 285 281 273 267 268 273 272 269 266 265 259 256 251 244 244 241 239 238 238 236 232 229 228 226
247 248 226 249 227 232 239 236 240 247 250 241 247 246 250 258 260 259 273 282 282 275 269 271 274 272 270 273 273 267 262 257 248 243 241 239 239 236 235 233 229 226 225 223
268 262 269 265 264 241 222 208 226 241 245 250 253 258 260 258 269 272 275 278 285 282 284 279 279 282 290 295 286 267 258 252 244 240 240 238 235 234 233 230 227 225 224 222
229 247 267 262 254 271 265 227 227 234 251 267 290 278 280 292 284 274 313 334 324 322 309 301 296 294 293 291 284 263 251 246 240 238 239 238 234 233 231 228 226 224 222 218
258 242 250 259 261 266 276 347 328 262 257 2 2 359 1 347 332 10 346 341 339 348 352 349 329 307 300 296 292 271 251 239 238 240 239 236 234 233 232 229 225 222 219 218
271 269 257 253 255 256 10 10 320 241 337 316 6 6 357 344 334 318 323 323 322 328 331 334 332 337 329 319 303 281 259 255 247 238 238 235 234 233 231 227 224 220 214 212
280 325 296 310 264 266 24 17 14 299 304 341 335 332 325 308 304 306 308 309 311 320 323 326 321 324 322 331 320 295 272 263 252 244 240 237 235 231 228 226 223 218 212 209
295 12 303 320 318 314 301 316 314 302 309 319 319 323 331 318 310 309 318 320 315 314 319 319 319 312 310 317 315 310 298 279 262 252 245 241 237 232 229 225 221 214 210 207
279 283 290 320 286 299 304 316 335 339 335 327 324 321 317 308 311 308 304 302 300 301 311 309 308 305 300 297 302 297 290 280 274 265 255 246 238 235 231 225 222 215 210 205
258 295 264 273 280 286 291 307 324 324 314 318 318 320 313 311 305 303 303 301 302 301 299 299 296 295 296 295 288 286 282 271 257 253 252 250 240 236 229 225 221 211 212 210
257 262 269 276 292 300 300 314 326 312 321 321 316 313 315 314 310 312 304 303 303 299 299 297 291 290 290 294 288 281 276 271 261 251 247 241 235 226 223 219 212 209 207 206